Location: Dead Woman Crossing
(43.5369°N, 106.3228°W)
Time: 21:38:35
(UTC+00:00)

QB50P2 - Pass Details

Date: 29 June 2022
Orbit: 590 x 605 km, 97.9° (Epoch: 07 August)

Event Time Altitude Azimuth Distance (km) Brightness Sun altitude
Rises 09:24:30 0° 1° (N) 2,856 ? -16.3°
Reaches altitude 10° 09:26:56 10° 348° (NNW) 1,951 ? -16.1°
Maximum altitude 09:30:25 25° 293° (WNW) 1,216 ? -15.8°
Enters shadow 09:32:13 19° 256° (WSW) 1,445 ? -15.6°
